1512640800.7,1850,4.63,73644.3,-4.15,-24.83,-31.23,0,*62
1512640801.93,1851,4.63,73650.3,-4.17,-25.09,-31.57,0,*61
1512640803.17,1852,4.63,73648.5,-4.17,-25.09,-31.61,0,*67
1512640804.39,1853,4.63,73638.3,-4.17,-24.97,-31.57,0,*65
1512640805.63,1854,4.63,73628.0,-4.17,-25.13,-31.57,0,*6F
1512640806.86,1855,4.63,73632.3,-4.17,-25.39,-31.73,0,*60
1512640808.11,1856,4.63,73630.5,-4.17,-25.29,-31.73,0,*62
1512640809.37,1857,4.63,73638.3,-4.15,-25.09,-31.57,0,*65
1512640810.6,1858,4.63,73650.0,-4.17,-24.97,-31.39,0,*66
1512640811.84,1859,4.63,73662.8,-4.19,-24.77,-31.33,0,*6D
1512640813.08,1860,4.63,73660.3,-4.17,-24.77,-31.11,0,*69
1512640814.32,1861,4.63,73648.3,-4.17,-24.61,-30.89,0,*6F
1512640815.56,1862,4.63,73638.3,-4.19,-24.97,-31.45,0,*6A
1512640816.83,1863,4.63,73626.5,-4.17,-24.83,-31.39,0,*6B
1512640818.06,1864,4.63,73646.8,-4.17,-25.13,-31.57,0,*6C
1512640819.31,1865,4.63,73642.0,-4.15,-25.13,-31.57,0,*6F
1512640820.53,1866,4.63,73628.0,-4.17,-24.77,-31.29,0,*64
1512640821.76,1867,4.63,73634.3,-4.17,-24.93,-31.39,0,*6E
1512640823.0,1868,4.63,73636.8,-4.17,-24.77,-31.23,0,*60
1512640824.25,1869,4.63,73644.5,-4.17,-24.77,-31.23,0,*61
1512640825.49,1870,4.63,73636.5,-4.17,-24.77,-31.11,0,*68
1512640826.72,1871,4.63,73640.8,-4.17,-24.93,-31.23,0,*62
1512640827.99,1872,4.63,73640.0,-4.15,-24.61,-30.89,0,*6F
1512640829.28,1873,4.63,73644.5,-4.15,-24.67,-30.89,0,*68
1512640830.53,1874,4.63,73640.8,-4.15,-24.47,-30.83,0,*67
1512640831.82,1875,4.63,73646.8,-4.15,-24.67,-31.11,0,*6E
1512640833.11,1876,4.63,73634.3,-4.15,-24.83,-31.23,0,*66
1512640834.37,1877,4.63,73642.5,-4.15,-25.13,-31.57,0,*6C
1512640835.63,1878,4.63,73628.5,-4.15,-25.13,-31.57,0,*63
1512640836.92,1879,4.56,73624.0,-4.15,-24.83,-31.39,0,*62
1512640838.17,1880,4.63,73616.5,-4.15,-24.93,-31.39,0,*65
1512640839.44,1881,4.63,73558.0,-4.15,-24.77,-31.23,0,*65
1512640840.69,1882,4.63,73546.3,-4.15,-25.13,-31.57,0,*66
1512640841.95,1883,4.63,73572.0,-4.15,-25.09,-31.39,0,*64
1512640843.21,1884,4.63,73576.5,-4.17,-25.45,-31.91,0,*6B
1512640844.44,1885,4.63,73566.0,-4.17,-25.09,-31.61,0,*6D
1512640845.72,1886,4.63,73616.3,-4.19,-25.29,-31.51,0,*61
1512640846.98,1887,4.63,73628.3,-4.17,-25.29,-31.73,0,*6E
1512640848.21,1888,4.63,73622.5,-4.17,-25.45,-31.79,0,*61
1512640849.44,1889,4.63,73614.8,-4.17,-25.29,-31.79,0,*6A
1512640850.64,1890,4.63,73630.5,-4.17,-25.39,-31.79,0,*63
1512640851.91,1891,4.63,73614.3,-4.19,-25.03,-31.45,0,*6A
1512640853.12,1892,4.63,73622.5,-4.17,-24.77,-31.05,0,*61
1512640854.4,1893,4.63,73630.3,-4.19,-24.71,-31.17,0,*6B
1512640855.67,1894,4.63,73638.3,-4.19,-24.71,-31.17,0,*6C
1512640856.94,1895,4.63,73616.0,-4.17,-24.83,-31.11,0,*68
1512640858.18,1896,4.63,73606.0,-4.17,-24.61,-30.89,0,*67
1512640859.42,1897,4.63,73598.5,-4.19,-24.97,-31.45,0,*60
1512640860.65,1898,4.63,73588.3,-4.17,-25.13,-31.57,0,*6F
1512640861.91,1899,4.63,73606.8,-4.19,-25.45,-31.79,0,*6F
1512640863.13,1900,4.63,73614.3,-4.19,-25.35,-31.79,0,*69
1512640864.4,1901,4.63,73624.8,-4.19,-25.49,-31.95,0,*61
1512640865.66,1902,4.63,73612.5,-4.19,-25.49,-31.85,0,*63
1512640866.92,1903,4.63,73584.8,-4.19,-25.35,-31.61,0,*63
1512640868.15,1904,4.63,73572.0,-4.17,-25.29,-31.79,0,*6E
1512640869.4,1905,4.63,73626.3,-4.19,-25.45,-31.67,0,*64
1512640870.63,1906,4.63,73636.0,-4.21,-25.35,-31.73,0,*6E
1512640871.86,1907,4.63,73652.5,-4.21,-25.35,-31.73,0,*6F
1512640873.11,1908,4.63,73644.3,-4.23,-25.09,-31.39,0,*63
1512640874.38,1909,4.63,73658.0,-4.21,-24.87,-31.23,0,*6C
1512640875.65,1910,4.63,73652.3,-4.21,-24.71,-30.95,0,*61
1512640876.87,1911,4.63,73648.5,-4.21,-24.61,-30.83,0,*66
1512640878.15,1912,4.63,73632.3,-4.19,-24.67,-30.95,0,*6F
1512640879.35,1913,4.63,73620.3,-4.21,-24.93,-31.33,0,*63
1512640880.62,1914,4.63,73642.3,-4.21,-25.03,-31.51,0,*68
1512640881.85,1915,4.63,73640.0,-4.21,-25.03,-31.33,0,*6D
1512640883.08,1916,4.63,73640.8,-4.21,-24.93,-31.23,0,*67
1512640884.32,1917,4.63,73638.0,-4.21,-24.77,-30.95,0,*60
1512640885.59,1918,4.63,73642.5,-4.19,-24.57,-30.77,0,*6A
1512640886.86,1919,4.63,73634.0,-4.19,-24.57,-30.77,0,*6B
1512640888.13,1920,4.63,73634.0,-4.19,-24.35,-30.55,0,*65
1512640889.35,1921,4.63,73630.5,-4.17,-24.51,-30.67,0,*69
1512640890.62,1922,4.63,73630.0,-4.17,-24.67,-30.89,0,*6F
1512640891.84,1923,4.63,73638.8,-4.17,-25.13,-31.45,0,*6D
1512640893.07,1924,4.63,73644.3,-4.17,-24.97,-31.39,0,*6C
1512640894.35,1925,4.63,73658.5,-4.19,-24.47,-30.61,0,*62
1512640895.55,1926,4.63,73650.3,-4.17,-23.39,-29.61,0,*69
1512640896.79,1927,4.63,73638.8,-4.17,-23.79,-30.01,0,*62
1512640898.04,1928,4.63,73548.3,-4.15,-24.61,-30.83,0,*6B
1512640899.3,1929,4.63,73578.8,-4.15,-25.09,-31.39,0,*65
1512640900.5,1930,4.63,73584.3,-4.13,-24.93,-31.33,0,*63
1512640901.74,1931,4.63,73552.8,-4.13,-24.87,-31.17,0,*61
1512640903.0,1932,4.63,73568.0,-4.15,-25.13,-31.39,0,*64
1512640904.23,1933,4.63,73634.8,-4.13,-25.19,-31.39,0,*69
1512640905.52,1934,4.63,73628.8,-4.15,-24.67,-30.89,0,*6A
1512640906.79,1935,4.63,73630.8,-4.15,-24.51,-30.55,0,*6F
1512640908.04,1936,4.63,73594.8,-4.13,-24.25,-30.27,0,*6C
1512640909.3,1937,4.63,73620.3,-4.13,-24.15,-30.17,0,*6D
1512640910.54,1938,4.63,73616.8,-4.13,-23.75,-29.73,0,*69
1512640911.82,1939,4.63,73624.5,-4.11,-23.33,-29.29,0,*67
1512640913.05,1940,4.63,73608.0,-4.05,-23.59,-29.73,0,*6F
1512640914.28,1941,4.63,73612.8,-4.09,-24.11,-30.11,0,*65
1512640915.49,1942,4.63,73618.3,-4.05,-24.05,-29.95,0,*6B
1512640916.77,1943,4.63,73614.0,-4.05,-24.41,-30.61,0,*69
1512640918.03,1944,4.63,73624.8,-4.05,-24.67,-30.95,0,*61
1512640919.29,1945,4.63,73628.0,-4.03,-24.67,-30.77,0,*6A
1512640920.52,1946,4.63,73628.8,-4.03,-24.93,-31.23,0,*62
1512640921.78,1947,4.63,73640.8,-4.05,-24.67,-30.95,0,*62
1512640923.03,1948,4.63,73634.8,-4.05,-24.57,-30.77,0,*62
1512640924.26,1949,4.63,73636.8,-4.03,-24.67,-31.05,0,*62
1512640925.53,1950,4.63,73634.8,-4.03,-24.83,-31.23,0,*64
1512640926.73,1951,4.63,73640.3,-4.03,-25.23,-31.45,0,*6E
1512640927.94,1952,4.63,73642.5,-4.05,-25.39,-31.79,0,*6F
1512640929.17,1953,4.63,73634.5,-4.05,-25.19,-31.51,0,*66
1512640930.42,1954,4.63,73630.5,-4.03,-25.29,-31.57,0,*62
1512640931.68,1955,4.63,73628.5,-4.05,-25.29,-31.61,0,*60
1512640932.89,1956,4.63,73604.8,-4.05,-25.39,-31.67,0,*64
1512640934.1,1957,4.63,73600.3,-4.05,-25.39,-31.67,0,*65
1512640935.33,1958,4.63,73620.3,-4.09,-25.61,-31.95,0,*66
1512640936.58,1959,4.63,73634.5,-4.09,-25.45,-31.85,0,*60
1512640937.78,1960,4.63,73622.5,-4.09,-25.09,-31.33,0,*6F
1512640939.02,1961,4.63,73626.0,-4.09,-24.71,-31.01,0,*61
1512640940.22,1962,4.63,73642.3,-4.09,-24.93,-31.17,0,*69
1512640941.41,1963,4.63,73640.5,-4.09,-24.93,-31.33,0,*6E
1512640942.61,1964,4.63,73640.5,-4.09,-25.09,-31.33,0,*6B
1512640943.87,1965,4.63,73640.5,-4.09,-25.03,-31.23,0,*61
1512640945.08,1966,4.63,73648.3,-4.09,-24.77,-31.01,0,*60
1512640946.33,1967,4.63,73602.5,-4.09,-24.71,-30.83,0,*6C
1512640947.55,1968,4.63,73586.3,-4.09,-24.93,-31.23,0,*64
1512640948.78,1969,4.63,73588.0,-4.09,-25.23,-31.57,0,*6C
1512640950.02,1970,4.63,73600.0,-4.09,-25.45,-31.73,0,*62
1512640951.28,1971,4.63,73632.3,-4.09,-25.55,-31.91,0,*6E
1512640952.53,1972,4.63,73626.3,-4.11,-25.39,-31.73,0,*62
1512640953.8,1973,4.63,73624.0,-4.09,-25.71,-31.95,0,*6E
1512640955.08,1974,4.63,73638.3,-4.11,-25.71,-32.07,0,*68
1512640956.34,1975,4.63,73640.5,-4.11,-25.61,-32.07,0,*68
1512640957.6,1976,4.63,73626.3,-4.11,-25.61,-31.95,0,*63
1512640958.86,1977,4.63,73624.3,-4.11,-25.61,-31.91,0,*66
1512640960.13,1978,4.63,73630.8,-4.11,-25.45,-31.91,0,*6F
1512640961.38,1979,4.63,73628.0,-4.11,-25.39,-31.57,0,*6F
1512640962.59,1980,4.63,73620.0,-4.13,-25.09,-31.01,0,*6B
1512640963.83,1981,4.63,73634.3,-4.13,-25.03,-31.33,0,*61
1512640965.06,1982,4.63,73626.8,-4.13,-25.23,-31.51,0,*64
1512640966.34,1983,4.63,73642.5,-4.15,-25.45,-31.57,0,*65
1512640967.56,1984,4.63,73626.5,-4.13,-25.35,-31.57,0,*63
1512640968.82,1985,4.63,73660.0,-4.13,-25.45,-31.85,0,*6A
1512640970.1,1986,4.63,73666.0,-4.15,-25.29,-31.61,0,*6F
1512640971.35,1987,4.63,73652.0,-4.15,-25.23,-31.57,0,*61
1512640972.62,1988,4.63,73628.3,-4.15,-24.77,-31.11,0,*6C
1512640973.85,1989,4.63,73588.5,-4.13,-24.87,-31.05,0,*61
1512640975.09,1990,4.63,73614.8,-4.15,-25.09,-31.45,0,*6C
1512640976.36,1991,4.63,73620.5,-4.13,-25.55,-31.91,0,*6B
1512640977.62,1992,4.63,73610.8,-4.13,-25.55,-31.73,0,*64
1512640978.9,1993,4.63,73610.0,-4.15,-25.29,-31.57,0,*6E
1512640980.16,1994,4.63,73622.5,-4.13,-25.55,-31.85,0,*6B
1512640981.45,1995,4.63,73624.0,-4.15,-25.29,-31.61,0,*6D
1512640982.67,1996,4.63,73622.8,-4.13,-25.29,-31.67,0,*6E
1512640983.94,1997,4.63,73622.8,-4.15,-25.61,-31.91,0,*6C
1512640985.17,1998,4.63,73628.5,-4.15,-25.61,-31.79,0,*65
1512640986.41,1999,4.63,73634.8,-4.15,-25.09,-31.45,0,*65
1512640987.67,2000,4.63,73626.3,-4.15,-25.13,-31.39,0,*6F
1512640988.9,2001,4.63,73632.8,-4.15,-25.09,-31.29,0,*64
1512640990.13,2002,4.63,73636.5,-4.15,-24.93,-31.17,0,*68
1512640991.38,2003,4.63,73636.5,-4.13,-24.71,-31.05,0,*60
1512640992.65,2004,4.63,73638.3,-4.13,-25.03,-31.23,0,*67
1512640993.86,2005,4.63,73646.5,-4.13,-24.77,-31.05,0,*60
1512640995.1,2006,4.63,73638.5,-4.13,-24.87,-31.17,0,*6F
1512640996.32,2007,4.63,73634.5,-4.13,-24.77,-31.17,0,*61
1512640997.55,2008,4.63,73632.0,-4.13,-25.09,-31.39,0,*6A
1512640998.76,2009,4.63,73646.5,-4.13,-25.35,-31.67,0,*6F
1512641000.01,2010,4.63,73652.0,-4.11,-25.19,-31.51,0,*6E
1512641001.26,2011,4.63,73644.0,-4.15,-25.23,-31.57,0,*64
1512641002.49,2012,4.63,73644.3,-4.13,-25.09,-31.39,0,*61
1512641003.73,2013,4.63,73650.8,-4.13,-25.19,-31.51,0,*6F
1512641004.98,2014,4.63,73636.3,-4.15,-25.39,-31.73,0,*6C
1512641006.19,2015,4.63,73630.0,-4.13,-25.39,-31.67,0,*6E
1512641007.42,2016,4.63,73630.3,-4.13,-25.35,-31.57,0,*62
1512641008.65,2017,4.63,73624.5,-4.13,-25.39,-31.57,0,*6F
1512641009.89,2018,4.63,73634.3,-4.13,-25.61,-31.95,0,*63
1512641011.1,2019,4.63,73632.0,-4.13,-25.87,-32.23,0,*64
1512641012.37,2020,4.63,73638.3,-4.13,-25.75,-32.07,0,*65
1512641013.61,2021,4.63,73638.5,-4.13,-25.61,-32.07,0,*61
1512641014.85,2022,4.63,73630.8,-4.13,-25.61,-31.95,0,*6A
1512641016.11,2023,4.63,73644.8,-4.15,-25.75,-32.13,0,*65
1512641017.32,2024,4.63,73650.3,-4.17,-25.65,-32.01,0,*62
1512641018.55,2025,4.63,73642.3,-4.17,-25.75,-32.13,0,*61
1512641019.82,2026,4.63,73622.5,-4.17,-25.75,-32.19,0,*68
1512641021.1,2027,4.63,73634.5,-4.15,-25.81,-32.29,0,*63
1512641022.36,2028,4.63,73662.0,-4.19,-25.81,-32.23,0,*6A
1512641023.62,2029,4.63,73662.3,-4.19,-25.97,-32.39,0,*67
1512641024.85,2030,4.63,73656.0,-4.17,-25.39,-31.57,0,*6E
1512641026.08,2031,4.63,73652.8,-4.17,-25.23,-31.39,0,*6C
1512641027.37,2032,4.63,73650.3,-4.19,-25.29,-31.61,0,*66
1512641028.6,2033,4.63,73650.5,-4.17,-25.39,-31.73,0,*6B
1512641029.81,2034,4.63,73646.8,-4.17,-25.49,-31.79,0,*61
1512641031.05,2035,4.63,73644.5,-4.17,-25.49,-31.91,0,*66
1512641032.28,2036,4.63,73650.0,-4.17,-25.75,-32.01,0,*60
1512641033.55,2037,4.63,73656.8,-4.19,-25.71,-32.01,0,*6B
1512641034.81,2038,4.63,73656.0,-4.19,-25.65,-31.95,0,*6F
1512641036.09,2039,4.63,73664.5,-4.19,-25.45,-31.85,0,*6D
1512641037.34,2040,4.63,73658.3,-4.19,-25.29,-31.67,0,*65
1512641038.59,2041,4.63,73652.8,-4.17,-25.29,-31.57,0,*69
1512641039.83,2042,4.63,73646.0,-4.19,-25.13,-31.33,0,*6F
1512641041.06,2043,4.63,73638.3,-4.19,-25.49,-31.79,0,*6F
1512641042.29,2044,4.63,73642.5,-4.19,-25.65,-32.01,0,*6A
1512641043.55,2045,4.63,73642.8,-4.19,-25.81,-32.01,0,*61
1512641044.81,2046,4.63,73632.5,-4.19,-25.81,-32.01,0,*62
1512641046.04,2047,4.63,73642.0,-4.17,-25.45,-31.45,0,*66
1512641047.33,2048,4.63,73646.3,-4.19,-25.55,-31.85,0,*6A
1512641048.61,2049,4.63,73638.3,-4.19,-25.45,-31.51,0,*63
1512641049.87,2050,4.63,73640.0,-4.19,-25.49,-31.61,0,*64
1512641051.11,2051,4.63,73646.5,-4.21,-25.55,-32.01,0,*66
1512641052.38,2052,4.63,73652.5,-4.19,-25.65,-32.07,0,*6B
1512641053.65,2053,4.63,73646.5,-4.21,-25.71,-32.07,0,*64
1512641054.88,2054,4.63,73648.0,-4.21,-25.61,-31.91,0,*6E
1512641056.11,2055,4.63,73644.0,-4.23,-25.49,-31.67,0,*6E
1512641057.35,2056,4.63,73642.8,-4.21,-25.09,-31.39,0,*60
1512641058.61,2057,4.63,73644.3,-4.21,-25.55,-31.85,0,*6F
1512641059.85,2058,4.63,73636.8,-4.21,-25.23,-31.39,0,*66
1512641061.07,2059,4.63,73638.5,-4.21,-24.51,-30.45,0,*69
1512641062.31,2060,4.63,73636.0,-4.21,-23.79,-29.89,0,*66
1512641063.58,2061,4.63,73630.3,-4.19,-24.57,-30.89,0,*6F
1512641064.84,2062,4.63,73632.5,-4.17,-24.83,-31.11,0,*6B
1512641066.09,2063,4.63,73626.5,-4.17,-24.47,-30.55,0,*63
1512641067.39,2064,4.63,73622.3,-4.19,-24.71,-30.89,0,*6E
1512641068.68,2065,4.63,73602.3,-4.15,-24.67,-30.73,0,*61
1512641069.94,2066,4.63,73614.0,-4.15,-24.93,-31.23,0,*6D
1512641071.17,2067,4.63,73608.0,-4.15,-25.09,-31.29,0,*64
1512641072.43,2068,4.63,73584.0,-4.15,-25.09,-31.39,0,*6A
1512641073.69,2069,4.63,73610.0,-4.15,-24.97,-31.39,0,*6D
1512641074.92,2070,4.63,73656.3,-4.13,-25.19,-31.57,0,*6C
1512641076.21,2071,4.63,73650.3,-4.15,-24.83,-31.23,0,*6A
1512641077.45,2072,4.63,73624.3,-4.15,-24.77,-31.05,0,*66
1512641078.68,2073,4.63,73620.8,-4.15,-24.97,-31.29,0,*67
1512641079.94,2074,4.63,73614.3,-4.15,-25.13,-31.57,0,*64
1512641081.19,2075,4.63,73616.5,-4.15,-25.45,-31.79,0,*6A
1512641082.47,2076,4.63,73620.5,-4.15,-25.29,-31.57,0,*6F
1512641083.68,2077,4.63,73626.8,-4.17,-25.13,-31.29,0,*6C
1512641084.92,2078,4.63,73612.3,-4.17,-24.97,-31.39,0,*6F
1512641086.17,2079,4.63,73612.0,-4.15,-25.23,-31.39,0,*62
1512641087.4,2080,4.63,73624.8,-4.17,-25.45,-31.79,0,*62
1512641088.67,2081,4.63,73626.0,-4.15,-25.49,-31.95,0,*6F
1512641089.92,2082,4.63,73610.3,-4.17,-25.29,-31.57,0,*66
1512641091.16,2083,4.63,73604.0,-4.17,-25.61,-31.91,0,*61
1512641092.39,2084,4.63,73626.5,-4.17,-25.61,-31.95,0,*62
1512641093.65,2085,4.63,73654.0,-4.17,-25.45,-31.73,0,*6D
1512641094.87,2086,4.63,73658.0,-4.19,-25.35,-31.67,0,*62
1512641096.11,2087,4.63,73636.3,-4.19,-24.97,-31.29,0,*60
1512641097.34,2088,4.63,73628.0,-4.17,-25.13,-31.39,0,*6D
1512641098.62,2089,4.63,73640.8,-4.15,-25.45,-31.91,0,*6F
1512641099.86,2090,4.63,73638.5,-4.17,-25.39,-31.73,0,*62
1512641101.1,2091,4.63,73632.5,-4.17,-25.49,-31.95,0,*6C
1512641102.33,2092,4.63,73648.3,-4.17,-25.61,-31.91,0,*61
1512641103.62,2093,4.63,73652.8,-4.19,-25.55,-31.85,0,*6C
1512641104.85,2094,4.63,73666.8,-4.17,-24.93,-31.11,0,*63
1512641106.12,2095,4.63,73668.5,-4.15,-24.47,-30.51,0,*6C
1512641107.36,2096,4.63,73660.5,-4.13,-24.25,-30.45,0,*68
1512641108.62,2097,4.63,73660.8,-4.15,-24.93,-31.23,0,*63
1512641109.85,2098,4.63,73662.5,-4.15,-25.39,-31.79,0,*62
1512641111.08,2099,4.63,73652.5,-4.13,-25.19,-31.57,0,*6B
1512641112.34,2100,4.63,73658.0,-4.15,-25.39,-31.73,0,*68
1512641113.6,2101,4.63,73646.0,-4.15,-25.61,-32.19,0,*6B
1512641114.83,2102,4.63,73638.0,-4.13,-25.75,-32.23,0,*62
1512641116.12,2103,4.63,73632.8,-4.15,-25.81,-32.29,0,*64
1512641117.35,2104,4.63,73628.3,-4.15,-25.65,-32.13,0,*60
1512641118.61,2105,4.63,73642.3,-4.17,-25.97,-32.19,0,*64
1512641119.9,2106,4.63,73642.5,-4.15,-25.81,-32.29,0,*61
1512641121.18,2107,4.63,73644.8,-4.15,-25.81,-32.29,0,*60
1512641122.44,2108,4.63,73646.5,-4.19,-25.97,-32.39,0,*65
1512641123.7,2109,4.63,73644.3,-4.17,-25.81,-32.19,0,*6F
1512641124.97,2110,4.63,73642.8,-4.19,-26.13,-32.39,0,*63
1512641126.18,2111,4.63,73644.8,-4.17,-26.07,-32.35,0,*65
1512641127.42,2112,4.63,73646.0,-4.19,-26.03,-32.35,0,*6C
1512641128.68,2113,4.63,73656.3,-4.19,-25.97,-32.35,0,*63
1512641129.95,2114,4.63,73668.0,-4.21,-25.75,-32.07,0,*62
1512641131.18,2115,4.63,73636.0,-4.21,-25.61,-31.91,0,*6A
1512641132.42,2116,4.63,73622.8,-4.19,-25.49,-31.67,0,*61
1512641133.71,2117,4.63,73648.3,-4.19,-25.55,-31.95,0,*60
1512641134.99,2118,4.63,73630.8,-4.19,-25.29,-31.51,0,*6C
1512641136.22,2119,4.63,73642.0,-4.21,-25.19,-31.39,0,*6B
1512641137.48,2120,4.63,73632.0,-4.21,-25.03,-31.39,0,*6A
1512641138.72,2121,4.63,73608.5,-4.19,-25.19,-31.45,0,*60
1512641139.98,2122,4.63,73610.0,-4.19,-25.35,-31.51,0,*68
1512641141.21,2123,4.63,73618.0,-4.19,-25.49,-31.79,0,*68
1512641142.45,2124,4.63,73654.5,-4.19,-25.19,-31.45,0,*65
1512641143.71,2125,4.63,73658.5,-4.19,-25.49,-31.85,0,*6D
1512641144.97,2126,4.63,73648.0,-4.19,-25.81,-32.23,0,*65
1512641146.26,2127,4.63,73654.5,-4.19,-25.71,-32.07,0,*6D
1512641147.52,2128,4.63,73660.0,-4.19,-25.81,-32.23,0,*6B
1512641148.73,2129,4.63,73658.5,-4.21,-25.49,-31.67,0,*66
1512641149.96,2130,4.63,73662.8,-4.21,-25.39,-31.85,0,*65
1512641151.2,2131,4.63,73660.5,-4.21,-25.61,-31.91,0,*6C
1512641152.43,2132,4.63,73644.0,-4.19,-25.49,-31.67,0,*67
1512641153.71,2133,4.63,73646.8,-4.19,-25.29,-31.51,0,*65
1512641154.95,2134,4.63,73652.0,-4.21,-25.19,-31.39,0,*64
1512641156.23,2135,4.63,73658.5,-4.19,-24.83,-30.95,0,*6B
1512641157.5,2136,4.63,73664.0,-4.17,-23.85,-29.89,0,*62
1512641158.77,2137,4.63,73658.5,-4.17,-24.41,-30.51,0,*61
1512641160.01,2138,4.63,73648.3,-4.17,-24.51,-30.55,0,*6B
1512641161.28,2139,4.63,73652.0,-4.17,-24.41,-30.51,0,*6F
1512641162.54,2140,4.63,73654.5,-4.17,-23.95,-30.01,0,*6A
1512641163.78,2141,4.63,73644.8,-4.15,-23.79,-29.83,0,*69
1512641165.02,2142,4.63,73646.8,-4.13,-23.79,-30.01,0,*6E
1512641166.25,2143,4.63,73640.8,-4.09,-23.95,-30.11,0,*67
1512641167.46,2144,4.63,73640.5,-4.09,-24.35,-30.33,0,*6D
1512641168.75,2145,4.63,73648.5,-4.11,-24.41,-30.51,0,*62
1512641170.01,2146,4.63,73652.0,-4.05,-24.41,-30.55,0,*60
1512641171.22,2147,4.63,73640.8,-4.03,-24.97,-31.17,0,*6B
1512641172.46,2148,4.63,73656.3,-4.05,-25.49,-31.85,0,*6B
1512641173.7,2149,4.63,73648.5,-4.05,-25.29,-31.45,0,*60
1512641174.94,2150,4.63,73638.3,-4.03,-25.29,-31.57,0,*6D
1512641176.18,2151,4.63,73644.5,-4.05,-25.49,-31.85,0,*63
1512641177.45,2152,4.63,73646.3,-4.05,-25.71,-32.07,0,*62
1512641178.69,2153,4.63,73624.8,-4.09,-25.61,-31.95,0,*66
1512641179.94,2154,4.63,73612.8,-4.09,-25.55,-31.73,0,*6E
1512641181.15,2155,4.63,73616.8,-4.05,-25.65,-32.01,0,*66
1512641182.38,2156,4.63,73608.8,-4.09,-25.75,-32.23,0,*68
1512641183.63,2157,4.63,73626.3,-4.11,-26.07,-32.29,0,*6C
1512641184.87,2158,4.63,73624.5,-4.11,-26.07,-32.39,0,*62
1512641186.1,2159,4.63,73638.8,-4.11,-26.03,-32.57,0,*6F
1512641187.34,2160,4.63,73626.0,-4.11,-26.07,-32.39,0,*69
1512641188.54,2161,4.63,73636.0,-4.09,-26.07,-32.39,0,*61
1512641189.77,2162,4.63,73660.8,-4.11,-26.23,-32.57,0,*65
1512641191.05,2163,4.63,73642.5,-4.11,-26.17,-32.45,0,*60
1512641192.29,2164,4.63,73618.8,-4.13,-26.17,-32.39,0,*6E
1512641193.55,2165,4.63,73618.8,-4.15,-26.23,-32.63,0,*61
1512641194.79,2166,4.63,73626.0,-4.13,-26.03,-32.29,0,*68
1512641196.03,2167,4.63,73626.3,-4.13,-25.97,-32.23,0,*6D
1512641197.26,2168,4.63,73624.3,-4.15,-26.07,-32.35,0,*69
1512641198.52,2169,4.63,73634.8,-4.15,-25.97,-32.35,0,*62
1512641199.78,2170,4.63,73644.5,-4.15,-25.97,-32.35,0,*6A
1512641201.04,2171,4.63,73650.3,-4.15,-26.13,-32.35,0,*64
1512641202.3,2172,4.63,73650.3,-4.15,-26.13,-32.35,0,*67
1512641203.56,2173,4.63,73650.8,-4.15,-25.91,-32.19,0,*61
1512641204.8,2174,4.63,73652.8,-4.17,-25.97,-32.35,0,*6C
1512641206.06,2175,4.63,73656.3,-4.17,-25.97,-32.29,0,*60
1512641207.3,2176,4.63,73656.5,-4.17,-26.07,-32.45,0,*63
1512641208.51,2177,4.63,73644.8,-4.17,-26.23,-32.51,0,*61
1512641209.77,2178,4.63,73648.5,-4.19,-26.33,-32.57,0,*67
1512641211.01,2179,4.63,73648.0,-4.19,-26.03,-32.23,0,*66
1512641212.28,2180,4.63,73668.3,-4.19,-26.29,-32.51,0,*6D
1512641213.54,2181,4.63,73670.3,-4.19,-25.97,-32.39,0,*64
1512641214.83,2182,4.63,73660.5,-4.19,-25.97,-32.19,0,*65
1512641216.07,2183,4.63,73662.5,-4.21,-25.75,-32.01,0,*6A
1512641217.33,2184,4.63,73652.8,-4.21,-25.55,-31.85,0,*60
1512641218.57,2185,4.63,73652.0,-4.19,-25.87,-32.23,0,*6A
1512641219.86,2186,4.63,73648.0,-4.19,-25.81,-32.07,0,*69
1512641221.14,2187,4.63,73650.8,-4.19,-25.81,-32.07,0,*68
1512641222.4,2188,4.63,73648.3,-4.19,-25.97,-32.23,0,*66
1512641223.63,2189,4.63,73654.5,-4.21,-26.03,-32.39,0,*69
1512641224.89,2190,4.63,73660.8,-4.19,-25.87,-32.19,0,*67
1512641226.1,2191,4.63,73672.0,-4.21,-25.91,-32.23,0,*63
1512641227.38,2192,4.63,73668.5,-4.19,-25.81,-32.07,0,*6C
1512641228.67,2193,4.63,73668.5,-4.23,-25.75,-32.07,0,*6F
1512641229.88,2194,4.63,73664.0,-4.21,-25.87,-32.13,0,*62
1512641231.14,2195,4.63,73654.3,-4.19,-25.71,-32.01,0,*62
1512641232.41,2196,4.63,73656.0,-4.21,-25.75,-32.07,0,*68
1512641233.67,2197,4.63,73640.0,-4.23,-26.07,-32.45,0,*6B
1512641234.89,2198,4.63,73642.0,-4.23,-26.23,-32.57,0,*61
1512641236.18,2199,4.63,73646.0,-4.23,-26.17,-32.45,0,*64
1512641237.43,2200,4.63,73640.3,-4.23,-25.91,-32.29,0,*60
1512641238.67,2201,4.63,73632.8,-4.23,-26.03,-32.23,0,*63
1512641239.9,2202,4.63,73596.8,-4.23,-26.03,-32.13,0,*63
1512641241.14,2203,4.63,73644.8,-4.23,-26.07,-32.23,0,*65
1512641242.36,2204,4.63,73634.0,-4.23,-25.91,-32.23,0,*6E
1512641243.6,2205,4.63,73644.3,-4.25,-25.97,-32.35,0,*68
1512641244.89,2206,4.63,73664.5,-4.23,-25.75,-32.07,0,*60
1512641246.15,2207,4.63,73654.0,-4.25,-25.55,-31.73,0,*65
1512641247.38,2208,4.63,73644.0,-4.25,-25.29,-31.45,0,*64
1512641248.6,2209,4.63,73640.3,-4.25,-25.39,-31.45,0,*64
1512641249.88,2210,4.63,73646.8,-4.23,-25.55,-31.57,0,*63
1512641251.14,2211,4.63,73652.3,-4.21,-25.71,-31.85,0,*69
1512641252.37,2212,4.63,73656.3,-4.23,-25.87,-32.13,0,*6D
1512641253.58,2213,4.63,73662.5,-4.25,-26.07,-32.35,0,*65
1512641254.84,2214,4.63,73664.3,-4.23,-25.35,-31.51,0,*67
1512641256.09,2215,4.63,73660.8,-4.23,-25.39,-31.57,0,*6C
1512641257.34,2216,4.63,73662.5,-4.23,-25.35,-31.51,0,*65
1512641258.6,2217,4.63,73666.5,-4.23,-25.35,-31.39,0,*6A
1512641259.83,2218,4.63,73676.5,-4.21,-24.87,-31.01,0,*64
1512641261.07,2219,4.63,73682.0,-4.21,-24.87,-31.17,0,*62
1512641262.3,2220,4.63,73670.8,-4.21,-25.09,-31.39,0,*63
1512641263.57,2221,4.63,73654.5,-4.19,-25.03,-31.29,0,*62
1512641264.85,2222,4.63,73658.3,-4.19,-24.87,-30.95,0,*6A
1512641266.08,2223,4.63,73658.8,-4.19,-25.19,-31.29,0,*6B
1512641267.31,2224,4.63,73660.5,-4.19,-25.13,-31.33,0,*6D
1512641268.57,2225,4.63,73642.5,-4.19,-25.03,-31.29,0,*66
1512641269.85,2226,4.63,73616.3,-4.19,-25.45,-31.61,0,*6B
1512641271.12,2227,4.63,73630.3,-4.19,-25.97,-32.23,0,*60
1512641272.38,2228,4.63,73638.5,-4.19,-25.87,-32.19,0,*67
1512641273.62,2229,4.63,73646.8,-4.19,-26.03,-32.23,0,*60
1512641274.88,2230,4.63,73650.3,-4.19,-26.13,-32.35,0,*6E
1512641276.14,2231,4.63,73644.5,-4.19,-26.13,-32.35,0,*6F
1512641277.38,2232,4.63,73648.8,-4.19,-26.03,-32.39,0,*61
1512641278.64,2233,4.63,73650.3,-4.19,-26.33,-32.57,0,*6B
1512641279.87,2234,4.63,73654.0,-4.21,-26.23,-32.45,0,*65
1512641281.11,2235,4.63,73646.5,-4.21,-26.39,-32.63,0,*6B
1512641282.37,2236,4.63,73650.3,-4.21,-26.55,-32.63,0,*62
1512641283.58,2237,4.63,73656.3,-4.21,-26.61,-32.91,0,*69
1512641284.87,2238,4.63,73660.8,-4.23,-26.17,-32.29,0,*66
1512641286.12,2239,4.63,73654.5,-4.23,-25.23,-31.39,0,*61
1512641287.36,2240,4.63,73646.3,-4.21,-25.19,-31.23,0,*6F
1512641288.58,2241,4.63,73644.3,-4.23,-25.23,-31.33,0,*64
1512641289.79,2242,4.63,73644.5,-4.21,-25.19,-31.33,0,*6C
1512641291.03,2243,4.63,73642.0,-4.19,-25.13,-31.29,0,*67
1512641292.26,2244,4.63,73638.3,-4.19,-25.19,-31.29,0,*6A
1512641293.5,2245,4.63,73622.3,-4.17,-25.29,-31.45,0,*6C
1512641294.74,2246,4.63,73620.0,-4.17,-25.29,-31.45,0,*6F
1512641295.99,2247,4.63,73612.8,-4.17,-25.29,-31.39,0,*65
1512641297.23,2248,4.63,73604.3,-4.17,-25.49,-31.73,0,*62
1512641298.49,2249,4.63,73626.3,-4.17,-25.29,-31.39,0,*6B
1512641299.78,2250,4.63,73626.3,-4.15,-24.83,-30.89,0,*6A
1512641301.02,2251,4.63,73632.8,-4.13,-24.87,-31.01,0,*68
1512641302.25,2252,4.63,73654.0,-4.15,-24.97,-31.05,0,*68
1512641303.45,2253,4.63,73652.0,-4.13,-24.93,-31.01,0,*6F
1512641304.69,2254,4.63,73638.8,-4.13,-25.23,-31.23,0,*62
1512641305.93,2255,4.63,73640.3,-4.13,-25.19,-31.23,0,*6A
1512641307.13,2256,4.63,73646.3,-4.13,-25.35,-31.33,0,*66
1512641308.39,2257,4.63,73642.8,-4.13,-25.55,-31.57,0,*63
1512641309.68,2258,4.63,73636.3,-4.11,-25.71,-31.85,0,*67
1512641310.95,2259,4.63,73644.8,-4.11,-25.45,-31.51,0,*68
1512641312.21,2260,4.63,73640.8,-4.11,-25.61,-31.73,0,*64
1512641313.46,2261,4.63,73650.3,-4.11,-25.61,-31.73,0,*65
1512641314.68,2262,4.63,73656.8,-4.11,-25.23,-31.33,0,*64
1512641315.93,2263,4.63,73632.8,-4.11,-25.61,-31.57,0,*61